Location: Newark
(34.6283°N, 36.0776°E)
Time: 23:57:32
(UTC+00:00)

deb Explorer IX - All Passes

Search period start: 18 September 2019 00:00
Search period end: 28 September 2019 00:00
Orbit: 544 x 1107 km, 38.8° (Epoch: 17 September)

Date Brightness Start Highest point End Pass type
(mag) Time Alt. Az. Time Alt. Az. Time Alt. Az.
18 Sep - 01:22:18 10° W 01:26:52 51° N 01:30:58 10° ENE visible
18 Sep - 03:09:50 10° WNW 03:14:03 57° N 03:18:04 10° E daylight
18 Sep - 04:56:53 10° WNW 05:00:49 47° SSW 05:04:48 10° SE daylight
18 Sep - 21:26:49 10° SSW 21:31:11 22° SE 21:35:05 10° E night (unlit)
18 Sep - 23:12:34 10° WSW 23:17:58 74° SSE 23:22:34 10° ENE visible
19 Sep - 01:00:19 10° W 01:05:01 52° N 01:09:12 10° ENE visible
19 Sep - 02:47:55 10° WNW 02:52:14 58° N 02:56:16 10° E visible
19 Sep - 04:35:03 10° W 04:38:59 45° SSW 04:42:55 10° SE daylight
19 Sep - 21:04:36 10° SSW 21:09:14 23° SE 21:13:22 10° E night (unlit)
19 Sep - 22:50:29 10° WSW 22:56:03 76° SSE 23:00:48 10° ENE night (unlit)
20 Sep - 00:38:18 10° W 00:43:11 52° N 00:47:26 10° ENE visible
20 Sep - 02:25:59 10° WNW 02:30:25 59° NNE 02:34:29 10° E visible
20 Sep - 04:13:11 10° W 04:17:10 44° SSW 04:21:03 10° SE daylight
20 Sep - 20:42:22 10° SSW 20:47:17 25° SSE 20:51:39 10° E night (unlit)
20 Sep - 22:28:23 10° WSW 22:34:09 78° SSE 22:39:03 10° ENE night (unlit)
21 Sep - 00:16:17 10° W 00:21:20 53° N 00:25:41 10° ENE visible
21 Sep - 02:04:02 10° WNW 02:08:36 60° NNE 02:12:42 10° E visible
21 Sep - 03:51:19 10° W 03:55:20 43° SSW 03:59:12 10° SE daylight
21 Sep - 20:20:08 10° SSW 20:25:19 26° SSE 20:29:55 10° E night (unlit)
21 Sep - 22:06:16 10° WSW 22:12:14 79° SSE 22:17:16 10° ENE night (unlit)
21 Sep - 23:54:15 10° W 23:59:28 54° N 00:03:57 10° ENE visible
22 Sep - 01:42:03 10° WNW 01:46:46 62° NNE 01:50:57 10° E visible
22 Sep - 03:29:26 10° W 03:33:31 42° SSW 03:37:22 10° SE daylight
22 Sep - 19:57:55 10° SSW 20:03:21 28° SSE 20:08:11 10° E night (unlit)
22 Sep - 21:44:10 10° WSW 21:50:19 81° SSE 21:55:31 10° ENE night (unlit)
22 Sep - 23:32:12 10° W 23:37:36 54° N 23:42:12 10° ENE visible
23 Sep - 01:20:04 10° WNW 01:24:56 63° NNE 01:29:12 10° E visible
23 Sep - 03:07:31 10° W 03:11:42 41° SSW 03:15:34 10° SE daylight
23 Sep - 19:35:43 10° SSW 19:41:22 29° SE 19:46:24 10° E night (unlit)
23 Sep - 21:22:02 10° WSW 21:28:23 83° SSE 21:33:44 10° ENE night (unlit)
23 Sep - 23:10:08 10° W 23:15:43 55° N 23:20:28 10° ENE night (unlit)
24 Sep - 00:58:04 10° WNW 01:03:06 65° NNE 01:07:27 10° E visible
24 Sep - 02:45:36 10° W 02:49:52 41° SSW 02:53:46 10° SE visible
24 Sep - 19:13:31 10° SSW 19:19:22 30° SSE 19:24:37 10° E night (unlit)
24 Sep - 20:59:55 10° WSW 21:06:26 84° SSE 21:11:57 10° ENE night (unlit)
24 Sep - 22:48:03 10° W 22:53:49 56° N 22:58:43 10° ENE night (unlit)
25 Sep - 00:36:03 10° WNW 00:41:15 66° NNE 00:45:43 10° E visible
25 Sep - 02:23:39 10° W 02:28:02 40° SSW 02:31:59 10° SE visible
25 Sep - 18:51:20 10° SSW 18:57:22 32° SSE 19:02:49 10° E night (unlit)
25 Sep - 20:37:47 10° WSW 20:44:28 85° SSE 20:50:10 10° ENE night (unlit)
25 Sep - 22:25:59 10° W 22:31:56 56° N 22:36:58 10° ENE night (unlit)
26 Sep - 00:14:00 10° WNW 00:19:25 68° NNE 00:24:00 10° E visible
26 Sep - 02:01:41 10° W 02:06:12 40° SSW 02:10:13 10° SE visible
26 Sep - 18:29:09 10° SSW 18:35:22 33° SE 18:41:00 10° E visible
26 Sep - 20:15:40 10° WSW 20:22:30 87° SSE 20:28:22 10° ENE night (unlit)
26 Sep - 22:03:53 10° W 22:10:01 57° N 22:15:14 10° ENE night (unlit)
26 Sep - 23:51:58 10° WNW 23:57:33 70° NNE 00:02:17 10° E visible
27 Sep - 01:39:43 10° W 01:44:22 40° SSW 01:48:28 10° SE visible
27 Sep - 18:06:59 10° SSW 18:13:21 34° SE 18:19:10 10° E visible
27 Sep - 19:53:33 10° WSW 20:00:31 88° SSE 20:06:34 10° ENE night (unlit)
27 Sep - 21:41:47 10° W 21:48:06 58° N 21:53:29 10° ENE night (unlit)
27 Sep - 23:29:54 10° WNW 23:35:41 71° NNE 23:40:33 10° E night (unlit)
